Find Starlink 34530

NORAD ID: 64491 Int'l Des: 2025-133 Owner: SPXS Country: US Constellation: starlink operational
LEOCIRCULAR

当前视图

正在加载3D地球...

About Starlink 34530

Starlink 34530 (NORAD 64491) is a starlink constellation satellite (v2 mini) launched Jun 23, 2025 by SPXS of US. It operates in LEO, CIRCULAR orbit with a mass of 575.00 kg.

即将过境

Passes for default location (London). Set your location on the main map for personalized predictions.

高度历史

Loading altitude history...

两行轨道根数

1 64491U 25133V 26263.34387035 .00011237 00000-0 34326-3 0 9995
2 64491 53.1639 286.7714 0001097 76.9560 283.1566 15.34394990 71048
Epoch: Sep 20, 2026 • Age: 24 hours

当前状态

高度 463.0 km
远地点 / 近地点 N/A
速度 7.64 km/s
星下点 20.71°N, 40.05°W
发射日期 Jun 23, 2025
运行时间 1.2 years
类型 internet

技术详情

分类 Payload
质量 575.00 kg
干质量 530.00 kg
长度 0.30 m
跨度 29.00 m
形状 ? Box + pan
制造商 SPXS
平台类型 Starlink V2MO
阶段状态 In Orbit
所有者/国家 SPXS/US

Most Searched